User: anonymous   Login
Location: NJAA Observatory
(40.6819°N, 74.8979°W)
Time: 05:47:46
(UTC-04:00)
Language:

Cosmos 1633 - Orbit

View from above orbital plane
View from above orbital plane
View from above satellite
View from above satellite

Ground track
Ground track

The orbit data is extracted from the following two-line orbital elements,

1 15592U 85020A   15146.85917632  .00003132  00000-0  12835-3 0  9996
2 15592 082.5393 350.8834 0014302 313.8154 120.7610 15.23819791649529
Epoch (UTC): 26 May 2015 20:37:12
Eccentricity: 0.0014302
inclination: 82.5393°
perigee height: 484 km
apogee height: 504 km
right ascension of ascending node: 350.8834°
argument of perigee: 313.8154°
revolutions per day: 15.23819791
mean anomaly at epoch: 120.7610°
orbit number at epoch: 64952

The dashed part of the orbit path shows where the satellite is in the earth's shadow,  

DLR